AirNav   Pilot Hours Calculator
 
 1096 users online  

9IL2 Routh Airport
St Joseph, Illinois, USA

GOING TO ST JOSEPH?


FAA INFORMATION EFFECTIVE 22 APRIL 2021

Location

FAA Identifier: 9IL2
Lat/Long: 40-03-54.1220N 088-01-35.1330W
40-03.902033N 088-01.585550W
40.0650339,-88.0264258
(estimated)
Elevation: 668 ft. / 204 m (estimated)
Variation: 01W (1990)
From city: 3 miles S of ST JOSEPH, IL
Time zone: UTC -5 (UTC -6 during Standard Time)
Zip code: 61873

Airport Operations

Airport use: Private use. Permission required prior to landing
Activation date: 02/1992
Control tower: no
ARTCC: CHICAGO CENTER
FSS: SAINT LOUIS FLIGHT SERVICE STATION
Attendance: UNATNDD
Wind indicator: yes
Segmented circle: no

Airport Communications

WX ASOS at CMI (12 nm W): 124.85 (217-355-4072)
WX AWOS-3 at TIP (15 nm N): 119.025 (217-892-4999)

Nearby radio navigation aids

VOR radial/distance  VOR name  Freq  Var
CMIr078/11.6CHAMPAIGN VORTAC110.0003E
DNVr235/25.5DANVILLE VORTAC111.0002E
RBSr167/31.6ROBERTS VOR/DME116.8002E

 
NDB name  Hdg/Dist  Freq  Var  ID
VEALS053/9.340703WCM -.-. --

Airport Services

Runway Information

Runway 18/36

Dimensions: 2664 x 134 ft. / 812 x 41 m
Surface: turf
RUNWAY 18  RUNWAY 36
Traffic pattern: leftleft
Obstructions: 15 ft. roadnone

Airport Ownership and Management from official FAA records

Ownership: Privately-owned
Owner: BETTY ROUTH/LOWELL ROUTH FAM TRUST
BOX 761
ST JOSEPH, IL 61873
Phone 217-469-7480
Manager: PAUL ROUTH
808 E. GRAND AVE
ST JOSEPH, IL 61873
Phone 217-202-6016

Airport Operational Statistics

Aircraft based on the field: 1
Single engine airplanes: 1
    

Additional Remarks

FOR CD CTC CHAMPAIGN APCH AT 217-355-4069, WHEN APCH CLSD CTC CHICAGO ARTCC AT 630-906-8921

Instrument Procedures

There are no published instrument procedures at 9IL2.

Some nearby airports with instrument procedures:

C16 - Frasca Field Airport (9 nm NW)
KCMI - University of Illinois-Willard Airport (12 nm W)
KTIP - Rantoul National Aviation Center Airport-Frank Elliott Field (15 nm N)
KDNV - Vermilion Regional Airport (21 nm E)
1C1 - Paxton Airport (23 nm N)
 
Loc | Ops | Rwys | IFR | FBO | Links
Com | Nav | Svcs | Stats | Notes
Area around 9IL2 (Routh Airport)
 
Road maps at: MapQuest Bing Google
 
Aerial photo
No photo
 
Sectional chart

 
Airport distance calculator
Flying to Routh Airport? Find the distance to fly.

From to 9IL2

Sunrise and sunset
Times for 13-May-2021
 Local
(UTC-5)
 Zulu
(UTC)
Morning civil twilight05:0910:09
Sunrise05:4010:40
Sunset19:5700:57
Evening civil twilight20:2801:28

Current date and time
Zulu (UTC)  13-May-2021 12:33:39
Local (UTC-5)  13-May-2021 07:33:39
 
METAR
KCMI 
11nm W 
131153Z 08006KT 10SM CLR 08/01 A3043 RMK AO2 SLP305 T00830006 10083 20039 53009
KTIP 
15nm N 
131215Z AUTO 00000KT 10SM CLR 08/01 A3044 RMK AO2 T00810006
KDNV 
21nm NE 
131215Z AUTO 00000KT 10SM CLR 07/03 A3044 RMK AO2 T00720033
TAF
KCMI 
11nm W 
131120Z 1312/1412 VRB03KT P6SM SKC FM132000 03005KT P6SM FEW070 FM140200 VRB03KT P6SM SKC
NOTAMs
Click for the latest NOTAMs
NOTAMs are issued by the DoD/FAA and will open in a separate window not controlled by AirNav.

 

 
 

Would you like to see your business listed on this page?

 If your business provides an interesting product or service to pilots, flight crews, aircraft, or users of the Routh Airport, you should consider listing it here.  To start the listing process, click on the button below
 
Add a business
 

Other Pages about Routh Airport

Update a link
 
Copyright © AirNav, LLC. All rights reserved. Privacy Policy  Contact